Flag for Canada Weather past 2 weeks in Québec, Quebec, Canada

Now
66 °F

Fog.


Feels Like: 66 °F
Forecast: 62 / 74 °F
Wind: 6 mph from Southwest

Location: Quebec Weather Station

Current Time: Jul 31, 2015 at 8:00:53 AM

Latest Report: Jul 31, 2015 at 7:00 AM


Visibility: 5 mi

Pressure: 29.64 "Hg

Humidity: 100%

Dew point: 66 °F

Location of QuébecLocation

Historic Weather in Québec — Graph

°F

Québec temperature yesterday

Maximum temperature yesterday: 81 °F (at 12:00 PM)
Minimum temperature yesterday: 64 °F (at 6:00 AM)
Average temperature yesterday: 72 °F

Past Weeks' High & Low Weather Summary

 TemperatureHumidityPressure
High86 °F (Jul 29, 4:00 PM)100% (Jul 18, 3:00 PM)30.13 "Hg (Jul 18, 3:00 PM)
Low50 °F (Jul 16, 7:00 AM)31% (Jul 28, 2:00 PM)29.51 "Hg (Jul 21, 5:00 PM)
Average66 °F80%29.83 "Hg
* Reported Jul 16 7:00 AM — Jul 31 7:00 AM, Québec, Weather by CustomWeather, © 2015

Note: Actual official high and low records may vary slightly from our data, if they occured in-between our weather recording intervals... More about our weather records

Advertising

Québec weather history for previous 24 hours

 ConditionsComfort  
Time TempWeatherWind HumidityBarometerVisibility
7:00 AM
Fri, Jul 31
66 °FFog.6 mph100%29.64 "Hg5 mi
6:00 AM66 °FPassing clouds.6 mph94%29.63 "Hg7 mi
5:00 AM64 °FPassing clouds.6 mph94%29.62 "Hg8 mi
4:00 AM64 °FPassing clouds.3 mph100%29.62 "Hg15 mi
3:00 AM66 °FPassing clouds.5 mph100%29.62 "Hg15 mi
2:00 AM70 °FPassing clouds.9 mph94%29.62 "Hg12 mi
1:00 AM68 °FFog.6 mph100%29.63 "Hg4 mi
12:00 AM68 °FFog.6 mph94%29.63 "Hg5 mi
11:00 PM
Thu, Jul 30
68 °FPassing clouds.5 mph94%29.64 "Hg10 mi
10:00 PM72 °FPartly cloudy.8 mph88%29.64 "Hg15 mi
9:00 PM72 °FPartly sunny.5 mph94%29.64 "Hg8 mi
8:00 PM72 °FMostly cloudy.No wind94%29.64 "Hg10 mi
7:00 PM72 °FPartly sunny.6 mph94%29.64 "Hg11 mi
6:51 PM72 °FBroken clouds.5 mph94%29.64 "Hg12 mi
6:00 PM72 °FRain showers. Fog.8 mph88%29.64 "Hg4 mi
5:00 PM77 °FSprinkles. Cloudy.17 mph79%29.64 "Hg10 mi
4:54 PM79 °FSprinkles. Broken clouds.16 mph74%29.64 "Hg15 mi
4:00 PM79 °FBroken clouds.17 mph74%29.64 "Hg15 mi
3:00 PM77 °FPartly sunny.14 mph83%29.66 "Hg13 mi
2:00 PM81 °FSprinkles. Mostly cloudy.6 mph70%29.67 "Hg20 mi
1:00 PM81 °FMore clouds than sun.6 mph62%29.69 "Hg20 mi
12:00 PM81 °FScattered showers. Broken clouds.2 mph62%29.72 "Hg20 mi
11:00 AM77 °FBroken clouds.6 mph65%29.74 "Hg20 mi
10:00 AM75 °FPartly sunny.7 mph65%29.75 "Hg25 mi
9:00 AM73 °FPartly sunny.5 mph69%29.78 "Hg25 mi
8:00 AM70 °FPartly sunny.6 mph73%29.79 "Hg20 mi
Weather by CustomWeather, © 2015

See weather overviewHow to use our weather pages